Location: Newark
(43.6583°N, 1.6617°E)
Time: 01:34:49
(UTC+00:00)

Vanguard 1 Rocket - Pass Details

Date: 22 August 2019
Orbit: 651 x 4225 km, 34.3° (Epoch: 19 September)

Event Time Altitude Azimuth Distance (km) Brightness Sun altitude
Rises 07:36:39 0° 264° (W) 3,949 10.1 26.2°
Reaches altitude 10° 07:39:32 10° 250° (WSW) 3,342 9.9 26.7°
Maximum altitude 07:46:10 24° 200° (SSW) 3,190 10.3 27.9°
Drops below altitude 10° 07:56:36 10° 154° (SSE) 5,437 12.0 29.7°
Sets 08:03:13 0° 144° (SE) 7,123 12.6 30.9°
